Location: Newark
(45.6439°N, 0.5436°E)
Time: 05:34:15
(UTC+00:00)

ISS - Pass Details

Date: 21 November 2019
Orbit: 411 x 421 km, 51.6° (Epoch: 08 December)

Event Time Altitude Azimuth Distance (km) Brightness Sun altitude
Rises 18:10:45 0° 206° (SSW) 2,344 0.6 -18.8°
Reaches altitude 10° 18:13:05 10° 192° (SSW) 1,488 -0.7 -19.2°
Enters shadow 18:14:47 20° 165° (SSE) 1,037 -1.9 -19.4°
